Dewpoint
73 74 74 74 75 76 76 77 77 78 80 78 78 77 77 77 78 78 78 78 77 77 77 77 77 76 75 75 76 76 74 73 70 72 73 72 75 75 75 76 77 76 75
73 74 74 74 74 74 75 76 78 78 79 78 78 78 78 77 77 77 76 72 76 76 76 76 76 73 77 77 76 76 74 74 73 71 72 74 73 72 73 76 75 71 73
73 72 72 73 72 73 73 74 77 77 76 77 77 77 77 77 77 77 77 76 77 76 76 76 76 76 76 76 76 76 75 74 75 73 70 72 72 73 72 72 75 75 75
71 71 72 71 71 71 73 74 74 77 76 76 77 77 77 77 77 76 76 76 77 76 77 78 77 77 76 77 77 76 76 76 75 74 72 72 71 69 70 70 67 67 70
71 71 71 72 72 72 72 73 75 75 76 76 76 77 77 76 74 76 76 76 76 76 76 77 77 76 73 74 75 76 77 76 73 70 69 69 69 69 69 69 69 69 71
72 71 73 74 74 73 74 72 74 76 75 77 76 76 76 73 68 67 72 75 75 75 75 76 76 73 72 68 68 69 72 73 73 72 72 71 72 72 72 72 72 72 70
74 73 74 74 73 74 74 75 75 75 76 76 76 76 75 76 68 64 65 73 74 74 76 75 74 72 71 74 70 66 67 66 67 72 72 72 72 73 74 74 74 73 72
74 74 74 74 74 75 75 75 77 78 76 76 74 75 76 76 66 65 63 71 73 75 74 74 74 74 74 72 73 72 72 73 73 71 71 72 73 74 75 74 74 73 73
72 74 74 74 74 75 75 76 77 76 76 76 75 74 74 74 67 63 65 72 71 72 73 74 74 74 69 65 71 72 73 72 69 65 64 64 65 64 66 69 70 70 69
70 73 74 75 74 74 74 75 74 73 73 74 75 74 70 73 67 63 64 72 72 71 72 72 67 70 66 64 70 72 72 72 74 75 75 73 70 73 66 70 71 69 69
71 70 72 72 72 73 74 72 72 71 72 73 72 72 71 71 72 64 61 73 74 74 74 70 70 60 57 56 56 68 71 72 73 75 75 74 73 75 76 75 75 74 72
70 70 70 71 71 71 69 71 69 69 68 68 68 69 70 71 67 61 61 60 65 71 73 75 75 58 59 60 61 61 59 62 70 71 71 71 72 75 75 75 73 70 69
69 69 69 69 69 70 71 71 70 69 69 70 70 69 69 70 68 61 60 59 62 67 72 68 60 58 59 60 57 58 58 69 72 71 71 72 74 74 74 70 67 65 65
67 68 69 70 69 70 71 70 69 69 69 69 69 68 69 70 63 62 63 64 63 67 62 65 64 61 61 66 65 68 70 73 72 72 73 76 74 74 74 71 68 67 65
63 65 67 66 67 67 69 66 65 66 65 67 66 66 65 66 58 51 51 58 60 58 53 65 69 71 73 74 74 75 73 75 74 74 74 73 74 73 72 70 69 66 65
59 58 58 60 64 63 64 62 57 55 50 50 50 57 59 52 48 46 45 45 45 46 61 67 69 68 68 68 69 69 72 72 73 73 73 73 73 74 72 71 68 65 64
60 59 56 55 57 58 60 64 61 58 51 48 47 48 50 49 49 47 45 45 48 51 63 62 63 62 62 62 62 63 64 66 68 69 72 73 74 73 70 70 67 65 63
56 52 54 54 53 55 56 55 54 58 60 60 52 50 46 46 47 46 46 49 60 59 61 60 60 59 58 58 58 58 58 59 61 63 65 67 70 72 72 69 67 65 64
51 49 51 51 52 54 54 54 53 55 57 58 61 51 52 46 48 48 47 61 60 60 60 59 58 57 56 56 55 55 56 57 57 59 61 63 66 69 70 70 68 60 61
52 52 51 51 48 51 51 51 51 56 57 56 55 57 57 53 55 59 62 61 58 57 57 58 57 56 55 54 54 53 53 54 54 54 55 56 60 65 67 67 67 65 64
49 48 52 48 47 47 48 50 51 52 52 52 56 56 46 52 52 55 58 59 57 56 56 56 55 54 53 53 52 52 52 52 51 51 51 53 55 60 64 65 66 66 64
46 46 45 43 45 49 49 49 49 47 47 49 52 52 44 51 52 54 57 58 58 59 55 56 54 54 52 51 52 50 51 50 49 49 49 51 53 56 61 63 64 64 64
43 43 41 42 43 46 45 44 45 46 46 46 46 46 48 51 50 51 53 52 54 56 56 54 51 50 50 51 48 44 41 39 43 46 48 50 51 55 57 61 62 62 62
40 40 40 41 40 41 42 42 44 40 40 40 40 42 43 46 44 47 50 50 50 50 52 54 51 47 48 47 47 42 34 32 35 40 43 49 51 53 56 58 61 62 62
38 39 41 41 41 42 42 42 42 40 39 40 40 42 42 43 43 41 45 49 50 49 48 48 47 47 44 48 44 37 33 30 33 32 34 43 53 54 54 55 57 58 60
39 40 42 43 44 43 43 43 43 42 41 41 41 42 42 41 40 40 42 45 45 45 45 46 46 46 45 41 38 33 31 30 32 31 31 37 46 53 54 53 54 55 57
Lifted_Index
-6 -6 -6 -6 -6 -6 -6 -6 -6 -6 -6 -6 -6 -6 -6 -5 -5 -5 -5 -5 -6 -6 -6 -6 -6 -6 -7 -8 -8 -8 -8 -7 -7 -8 -8 -8 -9 -9 -9 -9 -8 -8 -7
-6 -6 -6 -6 -6 -6 -6 -6 -6 -6 -6 -6 -6 -6 -6 -6 -6 -6 -6 -6 -6 -6 -6 -6 -6 -6 -7 -8 -8 -8 -8 -7 -7 -7 -8 -8 -8 -8 -8 -8 -7 -7 -7
-6 -6 -6 -6 -5 -5 -5 -6 -6 -6 -6 -7 -7 -7 -7 -7 -6 -6 -6 -6 -6 -7 -7 -7 -7 -7 -7 -8 -8 -8 -8 -8 -8 -8 -7 -7 -7 -7 -6 -6 -6 -6 -6
-6 -6 -6 -6 -5 -5 -5 -5 -5 -6 -6 -7 -7 -7 -7 -7 -7 -7 -7 -7 -7 -7 -7 -7 -8 -8 -8 -8 -8 -8 -9 -9 -8 -8 -7 -6 -6 -5 -5 -5 -4 -5 -5
-6 -6 -6 -6 -5 -5 -5 -5 -5 -6 -6 -7 -7 -7 -7 -7 -6 -6 -7 -7 -7 -7 -7 -7 -8 -8 -7 -8 -8 -8 -8 -8 -8 -7 -6 -5 -5 -5 -5 -5 -5 -5 -5
-7 -7 -6 -6 -6 -5 -5 -5 -5 -6 -6 -7 -7 -7 -6 -6 -6 -6 -6 -6 -6 -6 -6 -7 -7 -7 -7 -7 -7 -7 -7 -7 -6 -6 -5 -5 -6 -6 -6 -6 -6 -6 -6
-8 -8 -7 -7 -7 -7 -7 -6 -6 -6 -7 -7 -7 -7 -6 -6 -6 -5 -5 -5 -6 -6 -6 -6 -6 -6 -6 -6 -6 -6 -6 -6 -6 -5 -5 -6 -6 -6 -7 -7 -7 -7 -6
-8 -8 -8 -8 -8 -8 -8 -7 -7 -7 -7 -7 -7 -7 -6 -6 -6 -5 -5 -4 -5 -5 -5 -5 -5 -6 -6 -6 -5 -5 -5 -6 -6 -6 -5 -5 -6 -6 -7 -7 -6 -6 -6
-8 -8 -8 -8 -8 -8 -8 -7 -7 -6 -6 -6 -6 -6 -6 -6 -6 -5 -5 -5 -4 -5 -5 -5 -5 -5 -5 -5 -5 -5 -6 -6 -6 -6 -6 -6 -6 -7 -7 -6 -6 -5 -5
-7 -7 -7 -7 -7 -7 -7 -6 -6 -5 -4 -5 -5 -5 -5 -5 -6 -5 -5 -5 -5 -5 -6 -5 -5 -5 -5 -5 -5 -5 -6 -6 -7 -7 -8 -8 -8 -8 -7 -7 -6 -6 -6
-6 -6 -6 -6 -6 -7 -6 -5 -4 -4 -3 -3 -3 -3 -3 -4 -5 -5 -5 -5 -5 -6 -6 -6 -6 -5 -5 -5 -5 -5 -6 -6 -6 -7 -8 -8 -8 -8 -8 -7 -7 -7 -7
-5 -5 -5 -5 -5 -6 -5 -5 -4 -3 -2 -2 -2 -2 -2 -3 -3 -4 -4 -4 -4 -5 -7 -7 -7 -6 -6 -6 -6 -6 -6 -6 -6 -6 -7 -8 -8 -8 -8 -7 -7 -7 -6
-3 -4 -4 -4 -4 -5 -5 -5 -4 -3 -2 -2 -2 -2 -2 -2 -2 -3 -3 -3 -4 -5 -6 -7 -7 -7 -6 -6 -6 -6 -6 -6 -6 -6 -7 -8 -8 -8 -8 -7 -7 -6 -5
-2 -3 -3 -4 -4 -4 -5 -4 -4 -3 -3 -3 -3 -2 -1 -1 -2 -2 -2 -3 -3 -4 -5 -6 -6 -6 -6 -7 -7 -7 -6 -6 -6 -6 -7 -8 -8 -8 -7 -7 -6 -5 -4
-1 -2 -2 -3 -3 -4 -4 -3 -2 -2 -2 -2 -2 -1 -1 -1 -1 -1 -1 -2 -2 -3 -3 -3 -4 -5 -6 -7 -7 -7 -6 -6 -6 -6 -7 -7 -7 -7 -7 -7 -6 -5 -4
-0 -0 -1 -1 -2 -2 -2 -2 -1 -0 0 0 1 1 1 2 2 1 0 -1 -1 -1 -1 -2 -3 -4 -5 -6 -6 -6 -6 -5 -5 -6 -6 -6 -7 -7 -7 -6 -6 -5 -4
1 1 1 1 0 -0 -1 -1 -0 0 1 1 2 3 3 4 4 3 2 0 0 0 -0 -1 -2 -3 -3 -4 -5 -5 -4 -4 -3 -4 -4 -5 -6 -6 -6 -6 -6 -5 -4
2 2 2 2 2 2 1 1 1 1 1 1 1 2 3 4 4 3 2 1 1 1 1 1 0 -0 -1 -2 -2 -2 -2 -2 -2 -2 -2 -3 -4 -5 -5 -5 -5 -5 -5
3 3 3 3 3 3 3 2 2 1 1 1 1 2 3 3 3 3 3 2 2 2 3 3 2 1 1 0 -0 -0 -1 -1 -1 -1 -1 -1 -2 -4 -5 -5 -5 -5 -5
3 3 4 4 3 3 3 3 2 2 1 1 1 2 2 3 3 3 3 3 3 3 4 4 4 3 3 2 2 1 0 -0 -1 -1 -1 -1 -2 -3 -3 -4 -4 -4 -4
2 3 3 3 3 3 3 3 3 2 2 2 2 2 3 3 4 3 3 3 3 4 5 5 5 5 4 4 3 2 2 1 -0 -1 -1 -1 -1 -2 -2 -3 -3 -3 -4
3 3 3 3 3 3 3 3 3 3 3 3 3 3 3 4 4 4 4 4 4 5 5 6 7 7 6 6 5 4 3 2 1 0 -0 -1 -1 -1 -1 -2 -2 -2 -2
4 4 4 4 3 3 3 3 3 3 4 4 4 4 4 4 4 4 4 5 5 6 6 7 8 8 9 8 8 6 5 5 4 2 1 0 -0 -0 -1 -1 -1 -1 -1
6 6 5 5 4 4 4 4 4 4 4 4 4 4 4 4 4 4 4 5 6 7 7 7 8 9 10 11 11 10 9 9 8 6 4 2 1 0 0 -0 -0 -0 -0
7 7 6 5 5 5 4 4 4 4 5 4 4 4 4 4 4 4 4 5 5 7 7 8 8 9 10 11 12 12 12 12 12 11 9 7 5 3 2 1 0 0 0
7 7 6 6 5 5 5 5 5 5 5 4 4 4 4 4 4 4 4 4 5 6 7 8 8 9 10 10 11 12 13 13 14 14 13 11 8 5 3 1 1 0 0